[[{"header":{"parameterUnit":"m.s-1","parameterCategory":1,"la1":30.2991,"la2":30.254,"lo1":-89.0895,"lo2":-89.0444,"dy":0.0017,"dx":0.0017,"nx":28,"ny":28,"refTime":"2024-08-14T21:00:00:Z","depth":0,"parameterNumber":2,"parameterNumberName":"U-component_of_WINDS"},"data":[0,0,0,0,0,0,0,0,0,0,0,0,0,0,0,0,0,0,0,0,0,0,0,0,0,0,0,0,0,0,0,0,0,0,0,0,0,0,0,0,0,0,0,0,0,0,0,0,0,0,0,0,0,0,0,0,0,0,1.3418,1.3417,0,1.3321,1.3319,1.3318,1.3245,1.3244,1.3243,1.3242,1.3145,1.3143,1.3141,0,0,0,0,0,0,0,0,0,0,0,0,0,1.3542,1.354,1.3418,1.3417,1.3415,1.3321,1.3319,1.3318,1.3245,1.3244,1.3243,1.3242,1.3146,1.3143,1.3141,0,0,0,0,0,0,0,0,0,0,0,0,0,1.3471,1.3539,1.3418,1.3367,1.3362,1.3321,1.3319,1.3318,1.3245,1.3244,1.3243,1.3242,1.3146,1.3144,1.3141,1.3143,0,0,1.3132,1.3131,0,0,0,0,0,0,0,0,1.3475,1.3466,1.3376,1.3371,1.3364,1.3294,1.3327,1.3259,1.3245,1.3289,1.3242,1.3241,1.3195,1.3188,1.3173,1.3139,1.3135,1.3132,1.313,1.3129,1.3128,0,0,0,0,0,0,0,1.348,1.347,1.3379,1.3375,1.3368,1.335,1.3339,1.3314,1.3249,1.3285,1.328,1.3269,1.3192,1.3176,1.317,1.3133,1.3132,1.3129,1.3127,1.3126,1.3098,1.3099,0,0,0,0,0,0,1.3492,1.3475,1.3382,1.3376,1.3418,1.3349,1.3336,1.3317,1.3249,1.3238,1.327,1.3266,1.3181,1.3173,1.3166,1.3165,1.3129,1.3126,1.3124,1.3097,1.3098,1.3099,0,0,0,0,0,0,1.3495,1.3485,1.3386,1.3424,1.341,1.3348,1.3327,1.3316,1.3299,1.3238,1.3226,1.3265,1.318,1.317,1.315,1.3161,1.3124,1.3122,1.3096,1.3097,1.3099,1.3164,0,0,0,0,0,0,1.3499,1.3486,1.3486,1.3424,1.3408,1.3371,1.3328,1.3315,1.3294,1.3288,1.323,1.3219,1.3178,1.3154,1.3147,1.3156,1.312,1.3094,1.3096,1.3098,1.316,1.3167,1.3173,0,0,0,0,0,1.3504,1.3508,1.3486,1.3476,1.3407,1.3372,1.3363,1.3315,1.3295,1.3295,1.3256,1.3221,1.3161,1.3153,1.3144,1.3152,1.3093,1.3096,1.3098,1.3157,1.3166,1.3173,0,0,0,0,0,0,1.3573,1.3499,1.3474,1.3459,1.3422,1.3359,1.3357,1.3325,1.3294,1.3289,1.3232,1.3219,1.3205,1.3176,1.3169,1.3152,1.3123,1.3123,1.3171,1.3179,1.3185,1.3193,1.3117,0,0,0,0,0,1.3587,1.3564,1.3501,1.3493,1.3476,1.342,1.3403,1.337,1.333,1.3314,1.3273,1.3236,1.3209,1.3192,1.3163,1.3156,1.3143,1.3157,1.3164,1.3169,1.3171,1.3166,1.3172,1.3107,1.3107,1.3107,0,0,1.3615,1.3571,1.356,1.3506,1.3474,1.3453,1.3408,1.3387,1.3371,1.3311,1.3289,1.3258,1.3213,1.3199,1.3191,1.3175,1.3186,1.3172,1.3177,1.3175,1.3169,1.3175,1.318,1.3108,1.3108,1.3108,0,0,1.3654,1.3619,1.3609,1.3578,1.3529,1.3492,1.349,1.3432,1.3409,1.3386,1.3341,1.3322,1.3275,1.3246,1.3224,1.3254,1.3222,1.3246,1.328,1.3276,1.3281,1.3286,1.3297,1.3302,1.3248,1.3248,1.3248,0,1.3695,1.366,1.3608,1.359,1.3568,1.3513,1.3503,1.3476,1.3421,1.3407,1.339,1.3331,1.3297,1.3276,1.3283,1.3268,1.3264,1.3253,1.3285,1.3288,1.3292,1.3302,1.3306,1.3251,1.3251,1.3251,1.325,0,1.3713,1.369,1.3688,1.3636,1.3614,1.36,1.3547,1.3531,1.35,1.3465,1.3443,1.34,1.3363,1.3355,1.3324,1.333,1.3321,1.3295,1.3265,1.3302,1.3311,1.3314,1.3256,1.3255,1.3254,1.3253,0,0,1.3793,1.3714,1.3714,1.369,1.3633,1.3614,1.3599,1.3561,1.3549,1.3513,1.35,1.3462,1.3438,1.3414,1.3379,1.3376,1.3403,1.3349,1.3348,1.3362,1.3408,1.3429,1.3434,1.3381,1.3381,1.3382,1.3412,0,1.3825,1.3793,1.3746,1.3731,1.3709,1.3657,1.3643,1.3607,1.3575,1.3552,1.3516,1.3491,1.346,1.3445,1.3439,1.3401,1.3412,1.3398,1.3369,1.3368,1.3382,1.3439,1.346,1.3491,1.3415,1.3416,1.3416,0,1.3857,1.3824,1.3806,1.3751,1.3741,1.3729,1.3692,1.3671,1.363,1.3606,1.358,1.3543,1.3524,1.3497,1.3472,1.3464,1.3449,1.3429,1.3428,1.3424,1.3395,1.3437,1.3499,1.3505,1.3421,1.342,1.342,0,1.3919,1.387,1.3853,1.3834,1.377,1.3763,1.3736,1.3694,1.3675,1.3642,1.363,1.3596,1.3578,1.3553,1.3507,1.3491,1.3488,1.3456,1.3469,1.347,1.3471,1.3471,1.3533,1.346,1.346,1.346,1.346,0,1.3959,1.395,1.388,1.387,1.3859,1.3806,1.3797,1.3765,1.3728,1.3711,1.3664,1.365,1.359,1.3569,1.3534,1.3519,1.3511,1.3492,1.3483,1.3497,1.35,1.3487,1.3484,1.3461,1.3461,1.3461,1.346,0,1.4026,1.3979,1.3957,1.3898,1.3883,1.3878,1.3828,1.3816,1.3781,1.3761,1.3753,1.3697,1.367,1.3623,1.3582,1.3558,1.3551,1.3535,1.3565,1.356,1.3575,1.3575,1.3631,1.3636,1.356,1.3561,1.3562,0,1.4055,1.4047,1.3988,1.3973,1.3948,1.3925,1.3905,1.3853,1.3835,1.3788,1.3782,1.3751,1.3724,1.3683,1.364,1.3609,1.3592,1.3614,1.3587,1.3602,1.3594,1.3595,1.3595,1.362,1.3621,1.3622,1.3623,0,1.4113,1.409,1.4063,1.4028,1.4006,1.3976,1.3944,1.3935,1.3876,1.3858,1.383,1.3808,1.3767,1.3737,1.37,1.3673,1.3639,1.3632,1.3633,1.3648,1.3666,1.3657,1.3583,1.3631,1.363,1.363,1.3629,1.3629,1.4162,1.4153,1.411,1.4082,1.4053,1.4024,1.4011,1.3974,1.3949,1.3911,1.3882,1.3856,1.3816,1.3762,1.3737,1.3717,1.3701,1.3703,1.3703,1.3705,1.3711,1.3669,1.371,1.371,1.3709,1.3709,1.3709,0,1.4218,1.4188,1.4163,1.4119,1.4098,1.4067,1.403,1.4014,1.3992,1.3957,1.3931,1.3899,1.387,1.3825,1.3793,1.3785,1.3769,1.3779,1.3779,1.3774,1.3726,1.3729,1.3793,1.3793,1.3793,1.3793,1.3793,1.3793,1.4245,1.4228,1.42,1.4169,1.4139,1.4113,1.4095,1.4069,1.4041,1.4007,1.3983,1.3953,1.3914,1.3879,1.3852,1.3839,1.383,1.3845,1.3828,1.3785,1.3777,1.377,1.3772,1.3843,1.3843,1.3877,1.3877,1.3878]},{"header":{"parameterUnit":"m.s-1","parameterCategory":1,"la1":30.2991,"la2":30.254,"lo1":-89.0895,"lo2":-89.0444,"dy":0.0017,"dx":0.0017,"nx":28,"ny":28,"refTime":"2024-08-14T21:00:00:Z","depth":0,"parameterNumber":3,"parameterNumberName":"V-component_of_WINDS"},"data":[0,0,0,0,0,0,0,0,0,0,0,0,0,0,0,0,0,0,0,0,0,0,0,0,0,0,0,0,0,0,0,0,0,0,0,0,0,0,0,0,0,0,0,0,0,0,0,0,0,0,0,0,0,0,0,0,0,0,-1.315,-1.3149,0,-1.3119,-1.3119,-1.3118,-1.3083,-1.3082,-1.3082,-1.3081,-1.3049,-1.3049,-1.3049,0,0,0,0,0,0,0,0,0,0,0,0,0,-1.3177,-1.3177,-1.315,-1.3149,-1.3149,-1.3119,-1.3119,-1.3118,-1.3083,-1.3082,-1.3082,-1.3081,-1.305,-1.3049,-1.3049,0,0,0,0,0,0,0,0,0,0,0,0,0,-1.3158,-1.3177,-1.315,-1.3128,-1.3125,-1.3119,-1.3119,-1.3118,-1.3083,-1.3082,-1.3082,-1.3081,-1.305,-1.3049,-1.3049,-1.3061,0,0,-1.3047,-1.3047,0,0,0,0,0,0,0,0,-1.3159,-1.3157,-1.3131,-1.3129,-1.3127,-1.3104,-1.3117,-1.3099,-1.3083,-1.3099,-1.3081,-1.3081,-1.3068,-1.3066,-1.3062,-1.306,-1.3059,-1.3047,-1.3047,-1.3046,-1.3046,0,0,0,0,0,0,0,-1.316,-1.3158,-1.3137,-1.3131,-1.3128,-1.3119,-1.3116,-1.3113,-1.3089,-1.3098,-1.3095,-1.3092,-1.3067,-1.3063,-1.3061,-1.3058,-1.3047,-1.3047,-1.3046,-1.3046,-1.3067,-1.3068,0,0,0,0,0,0,-1.3165,-1.3159,-1.3138,-1.3137,-1.3141,-1.312,-1.3115,-1.3112,-1.3088,-1.3084,-1.3093,-1.3091,-1.3064,-1.3062,-1.306,-1.3075,-1.3046,-1.3046,-1.3046,-1.3066,-1.3067,-1.3068,0,0,0,0,0,0,-1.3166,-1.3164,-1.314,-1.3147,-1.3144,-1.312,-1.3116,-1.3112,-1.3108,-1.3085,-1.308,-1.3093,-1.3063,-1.3061,-1.3062,-1.3073,-1.3046,-1.3045,-1.3065,-1.3066,-1.3067,-1.3104,0,0,0,0,0,0,-1.3167,-1.3164,-1.3169,-1.3148,-1.3143,-1.3142,-1.3117,-1.3112,-1.3107,-1.3104,-1.3084,-1.308,-1.3062,-1.3063,-1.3061,-1.3072,-1.3045,-1.3064,-1.3065,-1.3067,-1.3102,-1.3106,-1.311,0,0,0,0,0,-1.3168,-1.3179,-1.3169,-1.3167,-1.3148,-1.3143,-1.314,-1.312,-1.3108,-1.3113,-1.3098,-1.308,-1.3072,-1.3063,-1.3061,-1.3072,-1.3063,-1.3065,-1.3067,-1.31,-1.3105,-1.311,0,0,0,0,0,0,-1.3201,-1.3176,-1.3164,-1.3169,-1.3159,-1.3137,-1.3142,-1.3127,-1.3119,-1.3116,-1.3092,-1.3087,-1.3092,-1.3082,-1.3072,-1.3084,-1.3065,-1.3067,-1.3091,-1.3096,-1.31,-1.3103,-1.3044,0,0,0,0,0,-1.321,-1.3207,-1.3185,-1.3192,-1.3187,-1.3166,-1.3162,-1.3148,-1.3136,-1.3131,-1.3116,-1.3105,-1.31,-1.3097,-1.3091,-1.31,-1.3096,-1.3106,-1.311,-1.3114,-1.3116,-1.3122,-1.3127,-1.3074,-1.3074,-1.3074,0,0,-1.3226,-1.3212,-1.3212,-1.3198,-1.3188,-1.3187,-1.3162,-1.3161,-1.316,-1.3131,-1.3132,-1.3121,-1.3106,-1.3112,-1.3114,-1.3103,-1.313,-1.3117,-1.312,-1.312,-1.3124,-1.3129,-1.3134,-1.3076,-1.3075,-1.3075,0,0,-1.3256,-1.3245,-1.325,-1.3241,-1.3226,-1.3212,-1.3213,-1.3194,-1.3186,-1.3186,-1.3165,-1.3163,-1.3154,-1.3146,-1.314,-1.3169,-1.3153,-1.3167,-1.319,-1.3196,-1.32,-1.3204,-1.3216,-1.322,-1.3169,-1.3169,-1.3169,0,-1.3278,-1.3276,-1.3254,-1.3255,-1.3251,-1.3225,-1.323,-1.3222,-1.3206,-1.3204,-1.3193,-1.3182,-1.3171,-1.3175,-1.3182,-1.3178,-1.3179,-1.317,-1.3201,-1.3205,-1.3208,-1.3219,-1.3223,-1.3171,-1.3171,-1.3171,-1.317,0,-1.3305,-1.3303,-1.3309,-1.3296,-1.3291,-1.3294,-1.3274,-1.3272,-1.3258,-1.3246,-1.3247,-1.3233,-1.3224,-1.3224,-1.321,-1.3226,-1.3221,-1.3206,-1.3187,-1.3215,-1.3225,-1.3229,-1.3174,-1.3173,-1.3173,-1.3172,0,0,-1.3355,-1.333,-1.3333,-1.3327,-1.331,-1.3308,-1.3311,-1.3303,-1.3303,-1.3293,-1.3295,-1.3289,-1.3276,-1.3269,-1.3254,-1.3259,-1.3285,-1.3244,-1.3243,-1.3254,-1.3304,-1.3317,-1.3322,-1.3274,-1.3275,-1.3275,-1.3306,0,-1.3383,-1.3386,-1.3367,-1.3376,-1.3375,-1.3351,-1.3353,-1.3343,-1.3332,-1.3329,-1.3316,-1.3313,-1.3294,-1.3291,-1.3295,-1.3281,-1.3295,-1.3278,-1.3277,-1.3277,-1.3283,-1.3327,-1.334,-1.337,-1.331,-1.331,-1.3311,0,-1.3415,-1.3409,-1.3417,-1.3401,-1.34,-1.3403,-1.3395,-1.3393,-1.3381,-1.3372,-1.3366,-1.3349,-1.3351,-1.3332,-1.3335,-1.3325,-1.3323,-1.3316,-1.3317,-1.3317,-1.3297,-1.333,-1.3379,-1.3384,-1.3316,-1.3316,-1.3315,0,-1.3453,-1.3446,-1.3451,-1.3446,-1.3427,-1.343,-1.3422,-1.341,-1.3407,-1.34,-1.3398,-1.3391,-1.3388,-1.3383,-1.3365,-1.3353,-1.3371,-1.335,-1.3365,-1.3365,-1.337,-1.3371,-1.3421,-1.3367,-1.3367,-1.3367,-1.3367,0,-1.3487,-1.3494,-1.3468,-1.3471,-1.3478,-1.3457,-1.3465,-1.3454,-1.3444,-1.3445,-1.3423,-1.3424,-1.34,-1.3399,-1.3385,-1.3391,-1.3388,-1.3382,-1.3379,-1.3385,-1.3386,-1.3384,-1.3383,-1.3368,-1.3368,-1.3367,-1.3367,0,-1.3531,-1.3514,-1.3518,-1.35,-1.3495,-1.3502,-1.3486,-1.3489,-1.3476,-1.3478,-1.3477,-1.3457,-1.3455,-1.3436,-1.3429,-1.342,-1.3432,-1.3423,-1.3436,-1.3434,-1.345,-1.345,-1.3503,-1.351,-1.345,-1.345,-1.3451,0,-1.3555,-1.3559,-1.3542,-1.3542,-1.3535,-1.3534,-1.3532,-1.3511,-1.3509,-1.3497,-1.3502,-1.3498,-1.3494,-1.3491,-1.3476,-1.3472,-1.3464,-1.3483,-1.3463,-1.347,-1.3466,-1.3467,-1.3468,-1.3488,-1.3488,-1.3489,-1.3489,0,-1.3599,-1.359,-1.3587,-1.3582,-1.358,-1.3574,-1.3567,-1.3568,-1.3546,-1.3545,-1.3543,-1.354,-1.3534,-1.3531,-1.3524,-1.3515,-1.3499,-1.3496,-1.3499,-1.3507,-1.3515,-1.3512,-1.3449,-1.3495,-1.3494,-1.3494,-1.3494,-1.3493,-1.3634,-1.3638,-1.3627,-1.3625,-1.3618,-1.3613,-1.3615,-1.3603,-1.3601,-1.3595,-1.3583,-1.3583,-1.3572,-1.3561,-1.3555,-1.3555,-1.3545,-1.355,-1.3551,-1.3553,-1.3557,-1.3513,-1.3553,-1.3553,-1.3553,-1.3553,-1.3553,0,-1.3679,-1.3671,-1.3669,-1.3661,-1.366,-1.3645,-1.3637,-1.3637,-1.3638,-1.3629,-1.3626,-1.3625,-1.3622,-1.3607,-1.3603,-1.3607,-1.3599,-1.3606,-1.3607,-1.3606,-1.3565,-1.3564,-1.3613,-1.3613,-1.3613,-1.3612,-1.3612,-1.3612,-1.3702,-1.3709,-1.3699,-1.3702,-1.3694,-1.3695,-1.3692,-1.3687,-1.3681,-1.368,-1.3678,-1.3669,-1.3658,-1.3653,-1.3651,-1.3647,-1.3647,-1.3657,-1.3651,-1.3614,-1.3608,-1.3603,-1.3601,-1.3657,-1.3657,-1.3691,-1.3691,-1.3691]}]]